Weather History for Hutchinson, KS

Change the Weather History Date:

Thursday, February 28, 2013

  Actual Average Record
Temperature  
Mean Temperature 29 °F -  
Max Temperature 34 °F 46 °F 78 °F (2006)
Min Temperature 24 °F 23 °F 8 °F (2009)
Degree Days  
Heating Degree Days 36    
Moisture  
Dew Point 23 °F    
Average Humidity 74    
Maximum Humidity 81    
Minimum Humidity 70    
Precipitation  
Precipitation 0.00 in - - ()
Sea Level Pressure  
Sea Level Pressure 30.24 in    
Wind  
Wind Speed 11 mph (NNW)    
Max Wind Speed 17 mph    
Max Gust Speed 24 mph    
Visibility 10 miles    
Events      
Averages and records for this station are not official NWS values.
T = Trace of Precipitation, MM = Missing Value Source: NWS Daily Summary

Daily Weather History Graph

Daily Weather History Graph

Search for Another Location

Airport:

Trip Planner

Search our weather history database for the weather conditions in past years. The results will help you decide how hot, cold, wet, or windy it might be!

Date:

Astronomy

Feb. 28, 2013 Rise Set
Actual Time 7:04 AM CST 6:24 PM CST
Civil Twilight 6:37 AM CST 6:50 PM CST
Nautical Twilight 6:07 AM CST 7:21 PM CST
Astronomical Twilight 5:36 AM CST 7:51 PM CST
Moon 9:48 PM CST (2/28) 8:18 AM CST (2/28)
Length of Visible Light 12h 12m
Length of Day
11h 19m
Waning Gibbous, 90% of the Moon is Illuminated
Feb 28
Waning Gibbous
Mar 4
Last Quarter
Mar 11
New
Mar 19
First Quarter
Mar 27
Full

Hourly Weather History & Observations

Time (CST) Temp. Windchill Dew Point Humidity Pressure Visibility Wind Dir Wind Speed Gust Speed Precip Events Conditions
12:52 AM 27.0 °F 18.7 °F 21.0 °F 78% 30.20 in 10.0 mi WNW 8.1 mph - N/A   Clear
1:52 AM 25.0 °F 14.8 °F 19.9 °F 81% 30.21 in 10.0 mi NW 10.4 mph - N/A   Clear
2:52 AM 24.1 °F 14.4 °F 19.0 °F 81% 30.20 in 10.0 mi NW 9.2 mph - N/A   Clear
3:52 AM 24.1 °F 14.4 °F 19.0 °F 81% 30.21 in 10.0 mi NW 9.2 mph - N/A   Mostly Cloudy
4:52 AM 27.0 °F 16.7 °F 21.0 °F 78% 30.21 in 10.0 mi NW 11.5 mph - N/A   Overcast
5:52 AM 28.9 °F 18.2 °F 21.9 °F 75% 30.22 in 10.0 mi NW 13.8 mph - N/A   Overcast
6:52 AM 28.9 °F 19.2 °F 21.9 °F 75% 30.22 in 10.0 mi NW 11.5 mph - N/A   Overcast
7:52 AM 30.0 °F 20.0 °F 23.0 °F 75% 30.22 in 10.0 mi NW 12.7 mph - N/A   Overcast
8:52 AM 32.0 °F 22.1 °F 24.1 °F 73% 30.24 in 10.0 mi NNW 13.8 mph - N/A   Overcast
9:52 AM 33.1 °F 22.6 °F 25.0 °F 72% 30.25 in 10.0 mi North 16.1 mph 24.2 mph N/A   Overcast
10:52 AM 33.1 °F 22.6 °F 25.0 °F 72% 30.26 in 10.0 mi NNW 16.1 mph - N/A   Overcast
11:52 AM 34.0 °F 23.4 °F 26.1 °F 73% 30.26 in 10.0 mi NNW 17.3 mph - N/A   Overcast
12:52 PM 34.0 °F 23.8 °F 26.1 °F 73% 30.25 in 10.0 mi North 16.1 mph - N/A   Overcast
1:52 PM 34.0 °F 24.6 °F 26.1 °F 73% 30.24 in 10.0 mi NNW 13.8 mph - N/A   Overcast
3:52 PM 34.0 °F 25.0 °F 25.0 °F 70% 30.25 in 9.0 mi North 12.7 mph - N/A   Overcast
4:52 PM 34.0 °F 25.5 °F 25.0 °F 70% 30.23 in 9.0 mi NNW 11.5 mph - N/A   Overcast
5:52 PM 33.1 °F 24.9 °F 25.0 °F 72% 30.24 in 10.0 mi NNW 10.4 mph - N/A   Overcast
6:52 PM 33.1 °F 24.4 °F 25.0 °F 72% 30.25 in 10.0 mi NNW 11.5 mph - N/A   Overcast
7:52 PM 33.1 °F 25.5 °F 25.0 °F 72% 30.25 in 10.0 mi North 9.2 mph - N/A   Overcast
8:52 PM 33.1 °F 25.5 °F 25.0 °F 72% 30.26 in 10.0 mi North 9.2 mph - N/A   Overcast
9:52 PM 32.0 °F 24.2 °F 24.1 °F 73% 30.26 in 10.0 mi North 9.2 mph - N/A   Overcast
10:52 PM 32.0 °F 24.8 °F 24.1 °F 73% 30.26 in 10.0 mi NNW 8.1 mph - N/A   Overcast
11:41 PM 30.2 °F 24.3 °F 23.0 °F 75% 30.22 in 10.0 mi NW 5.8 mph - N/A   Scattered Clouds
11:52 PM 30.0 °F 24.1 °F 23.0 °F 75% 30.24 in 10.0 mi NW 5.8 mph - N/A   Partly Cloudy